Regional Weather Roundup
Issued by NWS Upton, NY

Current Version | Previous Version | Graphics & Text | Print | Product List | Glossary Off
Versions: 1 2 3 4 5 6 7 8 9 10 11 12 13 14 15 16 17 18 19 20 21 22 23 24 25 26 27 28 29 30 31 32 33 34 35 36 37 38 39 40 41 42 43 44 45 46 47 48 49 50

126
ASUS41 KOKX 171108
RWROKX

REGIONAL WEATHER ROUNDUP
NATIONAL WEATHER SERVICE NEW YORK NY
700 AM EDT THU AUG 17 2017

NOTE: "FAIR" INDICATES FEW OR NO CLOUDS BELOW 12,000 FEET WITH NO
SIGNIFICANT WEATHER AND/OR OBSTRUCTIONS TO VISIBILITY.

NYZ071-072-176-178-NJZ106-104-171200-
NEW YORK CITY METRO AREA

CITY           SKY/WX    TMP DP  RH WIND       PRES   REMARKS
Central Park   CLOUDY    71  55  56 VRB5      30.08R
Bronx Bot Gard   N/A     68  54  60 E2        30.06S
LaGuardia APRT MOCLDY    71  57  61 NE8       30.05R
Kennedy INTL   MOCLDY    70  60  70 N7        30.06R
Breezy Point     N/A     70 N/A N/A N6          N/A
Newark/Liberty MOCLDY    68  58  70 N8        30.05R
Teterboro      MOCLDY    70  57  63 N3        30.05R
$$

NYZ177-179-078>081-171200-
LONG ISLAND NEW YORK

CITY           SKY/WX    TMP DP  RH WIND       PRES   REMARKS
Jones Beach      N/A     68 N/A N/A NE8         N/A
Matinecock PT    N/A     68 N/A N/A NE10        N/A
Farmingdale    CLOUDY    68  59  73 NE6       30.05R
MacArthur/ISP  MOCLDY    68  62  81 NE5       30.05R
Shirley        PTCLDY    67  62  84 CALM      30.06R
Mt Sinai Harb    N/A    N/A N/A N/A NE9         N/A
Westhampton    PTCLDY    65  56  72 E3        30.08R
East Hampton   FAIR      60  55  85 CALM      30.06R
Montauk          N/A     68  54  60 NE6       30.07R
$$

NYZ052-065-067-171200-
HUDSON VALLEY

CITY           SKY/WX    TMP DP  RH WIND       PRES   REMARKS
White Plains   MOCLDY    65  55  70 N3        30.07R
Larchmont Harb   N/A     66 N/A N/A N7          N/A
Croton On Huds   N/A     64 N/A N/A MISG        N/A
Newburgh       PTCLDY    61  57  88 VRB5      30.10R
Montgomery     MOCLDY    59  57  93 CALM      30.09R
Poughkeepsie   CLEAR     57  55  93 CALM      30.07R
Albany         MOCLDY    53  51  93 NE3       30.09S
$$

NJZ001-105-106-008-010-013-015-019>022-104-171200-
NEW JERSEY

CITY           SKY/WX    TMP DP  RH WIND       PRES   REMARKS
Newark/Liberty MOCLDY    68  58  70 N8        30.05R
Teterboro      MOCLDY    70  57  63 N3        30.05R
Caldwell       MOCLDY    65  64  97 CALM      30.07R
Somerville     MOCLDY    64  63  96 MISG      30.05R
Linden         PTSUNNY   71  56  58 NE3       30.05S
Perth Amboy      N/A     70 N/A N/A NE6         N/A
Sussex         MOCLDY    61  61 100 CALM      30.08R
Andover          N/A     62  61  96 CALM      30.08R
Trenton        MOCLDY    68  62  81 CALM      30.05R
Millville      CLEAR     68  67  96 CALM      30.04R FOG
Atlantic City  CLEAR     68  68 100 CALM      30.04R FOG
Wrightstown    CLEAR     66  65  97 CALM      30.03R
Toms River     CLEAR     65  63  93 CALM      30.05R
Belmar         MOCLDY    68  62  81 N3        30.06R
$$

PAZ047>061-062-071-171200-
EASTERN PENNSYLVANIA

CITY           SKY/WX    TMP DP  RH WIND       PRES   REMARKS
Philadelphia   PTCLDY    70  63  78 NE5       30.05R
Allentown      PTCLDY    64  60  87 CALM      30.07R
Scranton       PTCLDY    60  57  89 E5        30.09R
$$

CTZ002-004>006-009-010-012-RIZ004-006-007-MAZ004-011-015-171200-
SOUTHERN NEW ENGLAND
 IN CT

CITY           SKY/WX    TMP DP  RH WIND       PRES   REMARKS
Bradley INTL   MOCLDY    59  55  87 CALM      30.07R
Hartford       CLEAR     61  59  93 CALM      30.07R
Danbury        CLEAR     59  57  93 CALM      30.09R
Wtrbury/Oxford PTCLDY    60  54  80 CALM      30.09R
Norwalk Harbor   N/A     64 N/A N/A N8          N/A
Bridgeport     CLEAR     67  58  72 N8        30.06R
Meriden        CLEAR     59  57  93 CALM      30.08R
New Haven      PTCLDY    64  57  78 N8        30.06R
Chester        NOT AVBL
Groton         MOSUNNY   65  53  65 N9        30.05R
Wilimantic     SUNNY     57  56  96 CALM      30.08R

 IN RI

CITY           SKY/WX    TMP DP  RH WIND       PRES   REMARKS
Providence     PTSUNNY   61  53  75 NW3       30.07R
Block Island   MOSUNNY   67  53  61 NE7       30.06R
Westerly       MOSUNNY   63  53  70 N3        30.06R
 IN MA

CITY           SKY/WX    TMP DP  RH WIND       PRES   REMARKS
Boston         PTSUNNY   66  48  52 W6        30.06R
Worcester      SUNNY     57  47  69 NW6       30.09R
Westfield      PTCLDY    55  54  96 CALM      30.08S
Provincetown   SUNNY     65  58  78 NW6       30.06R
Nantucket      MOSUNNY   66  61  84 N6        30.04R
$$

ANZ330-335-338-340-345-350-353-355-171200-
COASTAL MARINE OBSERVATIONS


STATION/POSITION TIME  SKY/WX   TEMP    WIND        PRES    VSBY  WAVE
                                AIR SEA DIR/SP/G                  HT/PER
                 (UTC)          (F)     (DEG/KT/KT) (MB)    (MI)  (FT/S)
NY HARB ENTRANCE 0950            73 75   30/ 14/ 16 1016.0          3/10
GREAT SOUTH BAY  1015            71 77   40/ 10/ 12   N/A
23 SSW MONTAUK P 0950            71 71              1017.0          3/ 9
15 E BARNEGAT LI 1030               76                N/A           2/ 9
HUDSON CANYON    0950            74 74  260/  2/  2 1015.8          3/ 8
KINGS POINT      1024            70 73   50/  7/  8 1017.3
EXECUTION ROCKS  NOT AVBL
WESTERN LI SOUND NOT AVBL
CENTRAL LI SOUND NOT AVBL
EASTERN LI SOUND NOT AVBL
ROBBINS REEF     1024                   350/  6/  9 1017.9
$$


>>>>>>>>>>>>>>>>>>>>>>>>>>>> KEY <<<<<<<<<<<<<<<<<<<<<<<<<<<
>                                                          <
>     SKY/WX - Sky Condition/Present Weather               <
>     TMP    - Temperature in Fahrenheit                   <
>     DP     - Dew Point in Fahrenheit                     <
>     RH     - Relative Humidity in Percent                <
>     WIND   - Direction (from) and Speed in MPH           <
>     PRES   - Mean Sea Level Pressure (inches of Hg)      <
>     WCI    - Wind Chill Index                            <
>     VSB    - VISIBILITY IN MILES                         <
>     HX     - HEAT INDEX                                  <
>     TC     - TEMPERATURE IN CELSIUS                      <
>     VRB    - VARIABLE WIND DIRECTION                     <
>                                                          <
>>>>>>>>>>>>>>>>>>>>>>>>>>>> KEY <<<<<<<<<<<<<<<<<<<<<<<<<<<




USA.gov is the U.S. government's official web portal to all federal, state and local government web resources and services.